Portada
METAR-TAF:

METAR-TAF

Aeroports :

Kuantan, Malàisia

latitud: 03-37N, longitud: 103-13E, altitud: 18 m

Observació

L'informe es va fer fa 1 hora i 9 minuts, a les 11:00 UTC
Vent 6 kt del Nord/Nord-Est, variant entre Nord-Oest i Est/Sud-Est
Temperatura 29°C
Humitat 79%
Pressió 1012 hPa
Visibilitat 10 km o més
Escasses núvols a una alçada de 2000 ft

METAR: WMKD 171100Z 03006KT 320V120 9999 FEW020 29/25 Q1012 NOSIG

Hora: 20:09 (12:09 UTC)


TAF: manca

Observacions i pronòstics meteorològics de més de 4000 aeroports (METAR i TAF).

Les estacions disponibles són els punts grocs i vermells al mapa.

Posi el ratolí al punt desitjat per veure el nom de l'estació.

Feu clic per veure les observacions i els pronòstics meteorològics.

Per canviar el mapa: feu clic els botons verds amb una creu de color negre per apropar; al botó verd amb un guió per allunyar la imatge; o en les fletxes verdes per a mapes adjacents.


METAR-TAF: